Weather History for Farmingdale, NY

Change the Weather History Date:

Sunday, September 22, 2013

  Actual Average Record
Temperature  
Mean Temperature 64 °F -  
Max Temperature 71 °F 70 °F 84 °F (2005)
Min Temperature 55 °F 55 °F 42 °F (1997)
Degree Days  
Heating Degree Days 2    
Growing Degree Days 14 (Base 50)    
Moisture  
Dew Point 55 °F    
Average Humidity 74    
Maximum Humidity 100    
Minimum Humidity 40    
Precipitation  
Precipitation 0.47 in - - ()
Sea Level Pressure  
Sea Level Pressure 29.74 in    
Wind  
Wind Speed 12 mph (WNW)    
Max Wind Speed 22 mph    
Max Gust Speed 28 mph    
Visibility 8 miles    
Events Rain    
Averages and records for this station are not official NWS values.
T = Trace of Precipitation, MM = Missing Value Source: NWS Daily Summary

Daily Weather History Graph

Daily Weather History Graph

Search for Another Location

Airport:

Trip Planner

Search our weather history database for the weather conditions in past years. The results will help you decide how hot, cold, wet, or windy it might be!

Date:

Astronomy

Sep. 22, 2013 Rise Set
Actual Time 6:41 AM EDT 6:50 PM EDT
Civil Twilight 6:14 AM EDT 7:17 PM EDT
Nautical Twilight 5:42 AM EDT 7:49 PM EDT
Astronomical Twilight 5:09 AM EDT 8:22 PM EDT
Moon 8:37 PM EDT (9/22) 10:00 AM EDT (9/22)
Length of Visible Light 13h 03m
Length of Day
12h 09m
Waning Gibbous, 89% of the Moon is Illuminated
Sep 22
Waning Gibbous
Sep 26
Last Quarter
Oct 4
New
Oct 11
First Quarter
Oct 18
Full

Hourly Weather History & Observations

Time (EDT) Temp. Dew Point Humidity Pressure Visibility Wind Dir Wind Speed Gust Speed Precip Events Conditions
12:00 AM 69.8 °F 66.2 °F 88% 29.70 in 10.0 mi South 17.3 mph 27.6 mph 0.00 in Rain Light Rain
12:44 AM 69.8 °F 66.2 °F 88% 29.69 in 7.0 mi South 21.9 mph 25.3 mph 0.06 in Rain Light Rain
12:53 AM 69.1 °F 66.9 °F 93% 29.69 in 7.0 mi SSW 17.3 mph 25.3 mph 0.08 in Rain Rain
1:26 AM 68.0 °F 66.2 °F 94% 29.67 in 7.0 mi South 13.8 mph - 0.04 in Rain Light Rain
1:44 AM 68.0 °F 66.2 °F 94% 29.67 in 7.0 mi SSW 15.0 mph 24.2 mph 0.05 in Rain Light Rain
1:53 AM 68.0 °F 66.0 °F 93% 29.67 in 7.0 mi SSW 13.8 mph 23.0 mph 0.06 in Rain Light Rain
2:06 AM 68.0 °F 66.2 °F 94% 29.67 in 6.0 mi SSW 16.1 mph 21.9 mph 0.01 in Rain Light Rain
2:46 AM 62.6 °F 62.6 °F 100% 29.67 in 3.0 mi NW 9.2 mph - 0.13 in Rain Heavy Rain
2:48 AM 62.6 °F 62.6 °F 100% 29.68 in 2.5 mi Variable 6.9 mph - 0.14 in Rain Heavy Rain
2:53 AM 63.0 °F 61.0 °F 93% 29.67 in 3.0 mi NW 8.1 mph - 0.16 in Rain Rain
3:00 AM 62.6 °F 60.8 °F 94% 29.67 in 2.5 mi Variable 3.5 mph - 0.06 in Rain Heavy Rain
3:05 AM 62.6 °F 62.6 °F 100% 29.67 in 3.0 mi NW 4.6 mph - 0.08 in Rain Rain
3:53 AM 63.0 °F 62.1 °F 97% 29.68 in 6.0 mi Calm Calm - 0.15 in Rain Light Rain
4:53 AM 62.1 °F 60.1 °F 93% 29.68 in 9.0 mi NW 4.6 mph - 0.02 in Rain Light Rain
5:53 AM 62.1 °F 61.0 °F 96% 29.69 in 10.0 mi Calm Calm - 0.00 in   Overcast
6:53 AM 62.1 °F 61.0 °F 96% 29.70 in 10.0 mi West 4.6 mph - N/A   Overcast
7:53 AM 62.1 °F 60.1 °F 93% 29.71 in 10.0 mi WNW 6.9 mph - N/A   Overcast
8:53 AM 63.0 °F 59.0 °F 87% 29.73 in 10.0 mi WNW 8.1 mph - N/A   Clear
9:53 AM 64.9 °F 57.0 °F 75% 29.74 in 10.0 mi NW 6.9 mph - N/A   Partly Cloudy
10:53 AM 66.9 °F 48.9 °F 52% 29.75 in 10.0 mi NNW 10.4 mph 21.9 mph N/A   Clear
11:53 AM 69.1 °F 44.1 °F 40% 29.74 in 10.0 mi WNW 12.7 mph 21.9 mph N/A   Clear
12:53 PM 70.0 °F 46.0 °F 42% 29.75 in 10.0 mi WNW 12.7 mph 20.7 mph N/A   Clear
1:53 PM 69.1 °F 45.0 °F 42% 29.75 in 10.0 mi WNW 11.5 mph 23.0 mph N/A   Clear
2:53 PM 70.0 °F 45.0 °F 41% 29.75 in 10.0 mi NNW 15.0 mph 20.7 mph N/A   Partly Cloudy
3:53 PM 69.1 °F 45.0 °F 42% 29.76 in 10.0 mi WNW 11.5 mph 23.0 mph N/A   Partly Cloudy
4:53 PM 66.9 °F 44.1 °F 44% 29.77 in 10.0 mi NNW 12.7 mph 19.6 mph N/A   Mostly Cloudy
5:53 PM 64.0 °F 45.0 °F 50% 29.79 in 10.0 mi NW 9.2 mph 19.6 mph N/A   Clear
6:53 PM 62.1 °F 44.1 °F 52% 29.81 in 10.0 mi NNW 6.9 mph - N/A   Clear
7:53 PM 62.1 °F 44.1 °F 52% 29.83 in 10.0 mi NW 6.9 mph 16.1 mph N/A   Mostly Cloudy
8:53 PM 60.1 °F 44.1 °F 55% 29.86 in 10.0 mi NNW 11.5 mph - N/A   Partly Cloudy
9:53 PM 57.9 °F 44.1 °F 60% 29.88 in 10.0 mi NNW 5.8 mph - N/A   Mostly Cloudy
10:53 PM 57.0 °F 43.0 °F 59% 29.90 in 10.0 mi North 10.4 mph - N/A   Clear
11:53 PM 55.9 °F 41.0 °F 57% 29.90 in 10.0 mi North 13.8 mph 23.0 mph N/A   Overcast